Regional Weather Roundup
Issued by NWS Newport/Morehead, NC

Current Version | Previous Version | Text Only | Print | Product List | Glossary Off
Versions: 1 2 3 4 5 6 7 8 9 10 11 12 13 14 15 16 17 18 19 20 21 22 23 24 25 26 27 28 29 30 31 32 33 34 35 36 37 38 39 40 41 42 43 44 45 46 47 48 49 50
000 ASUS42 KMHX 251825 RWRMHX WEATHER ROUNDUP FOR EASTERN NORTH CAROLINA NATIONAL WEATHER SERVICE NEWPORT/MOREHEAD CITY NC 200 PM EDT SAT MAR 25 2017 NOTE: "FAIR" INDICATES FEW OR NO CLOUDS BELOW 12,000 FEET WITH NO SIGNIFICANT WEATHER AND/OR OBSTRUCTIONS TO VISIBILITY NCZ015>017-031-032-045>047-102-103-251900- NORTH COAST CITY SKY/WX TMP DP RH WIND PRES REMARKS EDENTON FAIR 75 51 42 W8 30.28F ELIZABETH CITY FAIR 75 51 43 SW14G21 30.26F KITTY HAWK NOT AVBL MANTEO FAIR 72 49 44 W10 30.28F $$ NCZ045>047-081-094-103-104-251900- CENTRAL COAST CITY SKY/WX TMP DP RH WIND PRES REMARKS FRISCO FAIR 70 54 56 SW12 30.32F $$ NCZ095-097-098-100-101-251900- SOUTHERN COAST CITY SKY/WX TMP DP RH WIND PRES REMARKS BEAUFORT FAIR 72 55 55 S15 30.32F CEDAR ISLAND NOT AVBL JACKSONVILLE NOT AVBL PINEY ISLAND FAIR N/A N/A N/A SW16G25 30.31F WILMINGTON CLOUDY 74 50 42 S14 30.31F $$ NCZ011>013-027>030-043-044-078>080-089-090>093-098-251900- COASTAL PLAIN CITY SKY/WX TMP DP RH WIND PRES REMARKS AHOSKIE N/A 74 53 46 SW6 30.26F CLINTON FAIR 74 53 47 S9 30.30F ELIZABETHTOWN FAIR 75 49 38 SW12G18 30.30F GOLDSBORO FAIR 75 50 41 SW10 30.26F GREENVILLE PTSUNNY 73 50 43 SW12G21 30.28F HAVELOCK NOT AVBL KENANSVILLE CLOUDY 73 52 46 S6 30.30F KINSTON CLOUDY 75 48 38 SW9 30.29F NEW BERN PTSUNNY 74 52 46 SW10 30.30F RICHLANDS CLOUDY 74 54 49 SW10 30.30F ROCKY MOUNT FAIR 74 51 44 SW13 30.27F WASHINGTON PTSUNNY 73 51 45 SW12G20 30.28F WHITEVILLE CLOUDY 73 50 45 S9 30.30F $$ AMZ130-135-150-152-154-156-158-170-250-252-270-ANZ085-086-088-633-658-670-251900- MARINE OBSERVATIONS STATION/POSITION TIME TEMP WIND PRES WAVE SWELL AIR SEA DIR/SP/G HT/PER HT/PER (UTC) (F) (DEG/KT/KT) (MB) (FT/S) (FT/S) CHESAPEAKE LIGHT NOT AVBL 64 E VA BEACH 1750 54 49 210/ 12/ 14 1024.8 3/ 5 2/11 DUCK 1800 68 47 260/ 12/ 13 1024.5 2 E DUCK 1800 49 N/A 1/11 OREGON INLET 1800 61 55 190/ 15/ 17 1025.5 13E OREGON INLT 1748 50 N/A 2/ 4 2/11 HATTERAS CG 1800 67 57 210/ 9/ 13 1026.2 DIAMOND BUOY 1750 70 77 230/ 17/ 19 1026.6 3/10 2/10 CAPE LOOKOUT 1800 71 210/ 11/ 16 1026.5 BEAUFORT LAB 1800 68 53 210/ 11/ 14 1025.9 30 SE NEW RVR IN 1808 68 200/ 6/ 10 1027.0 30 SE NEW RVR IN 1743 65 N/A 3/ 9 27 SE WRIGHTSVLE 1808 67 63 200/ 4/ 6 1026.1 5 SE WRIGHTSVLE 1808 62 58 190/ 6/ 10 1026.8 225 S CAPE HAT 1750 66 73 80/ 12/ 16 1028.4 4/ 8 3/ 8 41 SE CHARLESTON 1750 70 70 140/ 14/ 16 1026.5 4/ 7 3/ 7 $$

USA.gov is the U.S. government's official web portal to all federal, state and local government web resources and services.